Japanese version Home page |
Updated on December 20, 2020 |
Profile
|
Orbital ElementsT 2020 Dec. 14.94587 TT Veres q 0.0050117 (2000.0) P Q Peri. 77.35832 +0.17952892 -0.98332078 Node 357.16186 -0.96122417 -0.16903592 e 1.0 Incl. 143.93683 +0.20932622 +0.06713498 From 104 observations 2020 Dec. 13-14.
|
Magnitudes Graphm1 = 18.5 + 5 log d + 10.0 log r
|
The orbital elements are published on M.P.E.C. 2020-Y19.
|